Darstellungsparameter: Aktuell verwendete Einstellungen:
Skalierung der Graphiken ... ?
xyx+y,   Skalierungsfaktor:      Skalierung: Modus: x, Faktor: 1
Darstellungszeitraum ... ?
Vom - - bis: - -   Zeitraum: 23.03.2003 - 23.03.2003
Min/Max/Avg-Anzeige ... ?
Zeige MMA aktuell
Zeige MMA Monat
Zeige MMA alles
Zeige --A aktuell
Zeige --A Monat
Zeige --A alles
Keine MMA-Anzeige
MMA:
Minimum Maximum Average (ber die Originaldaten)
MMA-Basis: 23.02.2003 - 30.09.2000
Quicknavigation für Darstellung... ?
Tage:      1T, 2T, 3T, 5T -1T -2T -3T -5T +1T +2T +3T +5T
Wochen: 1W, 2W, 3W -1W -2W -3W +1W +2W +3W
Monate: 1M, 3M, 6M -1M -3M -6M +1M +3M +6M
Jahre:    1J, 3J, 5J, 10J -1J -3J -5J -10J +1J +3J +5J +10J
Nutze für die Darstellung ... ?
Originaldaten oder Mittelwerte auf ...
Stundenbasis Tagesbasis Wochenbasis
Monatsbasis Jahresbasis      Datenbasis: Original-Daten
Darstellen als:
Statistik (Auto) Statistik J:M      Darstellung:
Zur Graphik,    zurück zur Übersicht aller Sensoren.
 
Tabellarische Datenbersicht: ?
 
Sensor: Nr:Datum:Temp:Abs-Feuchte:Windchill:Wind:
Aussen-T/F 1 23-03-2003 00:01:15 6.3 C 2 g/m*3 6.3 C 0 km/h
2 23-03-2003 00:13:15 6.3 C 2 g/m*3 6.3 C 0 km/h
3 23-03-2003 00:25:15 6.3 C 2 g/m*3 6.3 C 0 km/h
4 23-03-2003 00:37:15 6.3 C 2 g/m*3 6.3 C 0 km/h
5 23-03-2003 00:49:15 2.5 C 2.59 g/m*3 2.5 C 0 km/h
6 23-03-2003 01:01:15 2.5 C 2.41 g/m*3 2.5 C 0 km/h
7 23-03-2003 01:13:15 2.1 C 2.52 g/m*3 2.1 C 0 km/h
8 23-03-2003 01:25:15 1.9 C 2.48 g/m*3 1.9 C 0 km/h
9 23-03-2003 01:37:15 1.6 C 2.6 g/m*3 1.6 C 0 km/h
10 23-03-2003 01:49:15 1.4 C 2.45 g/m*3 1.4 C 0 km/h
11 23-03-2003 02:01:15 1.4 C 2.51 g/m*3 1.4 C 0 km/h
12 23-03-2003 02:13:15 1 C 2.6 g/m*3 1 C 0 km/h
13 23-03-2003 02:25:15 0.8 C 2.61 g/m*3 0.8 C 0 km/h
14 23-03-2003 02:37:15 0.7 C 2.49 g/m*3 0.7 C 0 km/h
15 23-03-2003 02:49:15 0.6 C 2.63 g/m*3 0.6 C 0 km/h
16 23-03-2003 03:01:15 0.6 C 2.52 g/m*3 0.6 C 0 km/h
17 23-03-2003 03:13:15 0.5 C 2.51 g/m*3 0.5 C 0 km/h
18 23-03-2003 03:25:15 0.3 C 2.52 g/m*3 0.3 C 0 km/h
19 23-03-2003 03:37:15 0 C 2.57 g/m*3 0 C 0 km/h
20 23-03-2003 03:49:15 -0.3 C 2.52 g/m*3 -0.3 C 0 km/h
21 23-03-2003 04:01:15 -0.3 C 2.56 g/m*3 -0.3 C 0 km/h
22 23-03-2003 04:13:15 -0.6 C 2.56 g/m*3 -0.6 C 0 km/h
23 23-03-2003 04:25:15 -0.6 C 2.6 g/m*3 -0.6 C 0 km/h
24 23-03-2003 04:37:15 -0.7 C 2.58 g/m*3 -0.7 C 0 km/h
25 23-03-2003 04:49:15 -0.8 C 2.7 g/m*3 -0.8 C 0 km/h
Sensor: Nr:Datum:Temp:Abs-Feuchte:Windchill:Wind:
Aussen-T/F 26 23-03-2003 05:01:15 -0.9 C 2.64 g/m*3 -0.9 C 0 km/h
27 23-03-2003 05:13:15 -1 C 2.71 g/m*3 -1 C 0 km/h
28 23-03-2003 05:25:15 -1.1 C 2.74 g/m*3 -1.1 C 0 km/h
29 23-03-2003 05:37:15 -1.3 C 2.74 g/m*3 -1.3 C 0 km/h
30 23-03-2003 05:49:15 -1.4 C 2.77 g/m*3 -1.4 C 0 km/h
31 23-03-2003 06:01:15 -1.5 C 2.75 g/m*3 -1.5 C 0 km/h
32 23-03-2003 06:13:15 -1.6 C 2.73 g/m*3 -1.6 C 0 km/h
33 23-03-2003 06:25:15 -1.8 C 2.69 g/m*3 -1.8 C 0 km/h
34 23-03-2003 06:37:15 -1.9 C 2.67 g/m*3 -1.9 C 0 km/h
35 23-03-2003 06:49:15 -1.8 C 2.69 g/m*3 -1.8 C 0 km/h
36 23-03-2003 07:01:15 -2.1 C 2.64 g/m*3 -2.1 C 0 km/h
37 23-03-2003 07:13:15 -2 C 2.74 g/m*3 -2 C 0 km/h
38 23-03-2003 07:25:15 -2 C 2.74 g/m*3 -2 C 0 km/h
39 23-03-2003 07:37:15 -2.1 C 2.64 g/m*3 -2.1 C 0 km/h
40 23-03-2003 07:49:15 -1.8 C 2.65 g/m*3 -1.8 C 0 km/h
41 23-03-2003 08:01:15 -1.8 C 2.69 g/m*3 -1.8 C 0 km/h
42 23-03-2003 08:13:15 -1.8 C 2.65 g/m*3 -1.8 C 0 km/h
43 23-03-2003 08:25:15 -1.6 C 2.69 g/m*3 -1.6 C 0 km/h
44 23-03-2003 08:37:15 -1.2 C 2.72 g/m*3 -1.2 C 0 km/h
45 23-03-2003 08:49:15 -0.8 C 2.8 g/m*3 -0.8 C 0 km/h
46 23-03-2003 09:01:15 0.2 C 2.9 g/m*3 0.2 C 0 km/h
47 23-03-2003 09:13:16 1.4 C 2.99 g/m*3 1.4 C 0 km/h
48 23-03-2003 09:25:16 2.1 C 2.8 g/m*3 2.1 C 0 km/h
49 23-03-2003 09:37:15 3 C 2.79 g/m*3 3 C 0 km/h
50 23-03-2003 09:49:15 3.6 C 2.72 g/m*3 3.6 C 0 km/h
Sensor: Nr:Datum:Temp:Abs-Feuchte:Windchill:Wind:
Aussen-T/F 51 23-03-2003 10:01:15 4.9 C 2.7 g/m*3 4.9 C 0 km/h
52 23-03-2003 10:13:15 5.6 C 2.9 g/m*3 5.6 C 0 km/h
53 23-03-2003 10:25:15 6.5 C 2.77 g/m*3 6.5 C 0 km/h
54 23-03-2003 10:37:15 7.6 C 2.74 g/m*3 7.6 C 0 km/h
55 23-03-2003 10:49:15 8.6 C 2.58 g/m*3 8.6 C 0 km/h
56 23-03-2003 11:01:15 9.6 C 2.38 g/m*3 9.6 C 0 km/h
57 23-03-2003 11:13:15 10.7 C 1.96 g/m*3 10.7 C 0 km/h
58 23-03-2003 11:25:15 10.6 C 1.95 g/m*3 10.6 C 0 km/h
59 23-03-2003 11:37:16 11.4 C 2.05 g/m*3 11.4 C 0 km/h
60 23-03-2003 11:49:16 12.3 C 2.17 g/m*3 12.3 C 0 km/h
61 23-03-2003 12:01:16 13.1 C 2.28 g/m*3 13.1 C 0 km/h
62 23-03-2003 12:13:14 14.1 C 2.43 g/m*3 14.1 C 0 km/h
63 23-03-2003 12:25:14 15.2 C 2.6 g/m*3 15.2 C 0 km/h
64 23-03-2003 12:37:16 15.5 C 2.64 g/m*3 15.5 C 0 km/h
65 23-03-2003 12:49:16 15.6 C 2.66 g/m*3 15.6 C 0 km/h
66 23-03-2003 13:01:16 15.8 C 2.69 g/m*3 15.8 C 0 km/h
67 23-03-2003 13:13:15 15.8 C 2.69 g/m*3 15.8 C 0 km/h
68 23-03-2003 13:25:15 16.2 C 2.76 g/m*3 16.2 C 0 km/h
69 23-03-2003 13:37:15 16.6 C 2.83 g/m*3 16.6 C 0 km/h
70 23-03-2003 13:49:15 17.2 C 2.93 g/m*3 17.2 C 0 km/h
71 23-03-2003 14:01:15 17.5 C 2.98 g/m*3 17.5 C 0 km/h
72 23-03-2003 14:13:15 17.8 C 3.04 g/m*3 17.8 C 0 km/h
73 23-03-2003 14:25:15 18.5 C 3.16 g/m*3 18.5 C 0 km/h
74 23-03-2003 14:37:15 18.4 C 3.15 g/m*3 18.4 C 0 km/h
75 23-03-2003 15:01:15 19.5 C 3.36 g/m*3 19.5 C 0 km/h
Sensor: Nr:Datum:Temp:Abs-Feuchte:Windchill:Wind:
Aussen-T/F 76 23-03-2003 15:13:15 20.2 C 3.5 g/m*3 20.2 C 0 km/h
77 23-03-2003 15:25:15 20.8 C 3.62 g/m*3 20.8 C 0 km/h
78 23-03-2003 15:37:15 20.8 C 3.62 g/m*3 20.8 C 0 km/h
79 23-03-2003 15:49:15 21.1 C 3.69 g/m*3 21.1 C 0 km/h
80 23-03-2003 16:01:15 21.3 C 3.73 g/m*3 21.3 C 0 km/h
81 23-03-2003 16:13:15 21.1 C 3.69 g/m*3 21.1 C 0 km/h
82 23-03-2003 16:25:15 20.7 C 3.6 g/m*3 20.7 C 0 km/h
83 23-03-2003 16:37:15 20.7 C 3.6 g/m*3 20.7 C 0 km/h
84 23-03-2003 16:49:15 20.8 C 3.62 g/m*3 20.8 C 0 km/h
85 23-03-2003 17:01:15 20.7 C 3.6 g/m*3 20.7 C 0 km/h
86 23-03-2003 17:13:15 20.2 C 3.5 g/m*3 20.2 C 0 km/h
87 23-03-2003 17:25:15 20 C 3.46 g/m*3 20 C 0 km/h
88 23-03-2003 17:37:15 19.4 C 3.34 g/m*3 19.4 C 0 km/h
89 23-03-2003 17:49:15 19.2 C 3.3 g/m*3 19.2 C 0 km/h
90 23-03-2003 18:01:15 18.7 C 3.2 g/m*3 18.7 C 0 km/h
91 23-03-2003 18:13:15 17.8 C 3.04 g/m*3 17.8 C 0 km/h
92 23-03-2003 18:25:15 16.4 C 2.79 g/m*3 16.4 C 0 km/h
93 23-03-2003 18:37:15 15 C 2.56 g/m*3 15 C 0 km/h
94 23-03-2003 18:49:15 13.8 C 2.38 g/m*3 13.8 C 0 km/h
95 23-03-2003 19:01:15 13 C 2.27 g/m*3 13 C 0 km/h
96 23-03-2003 19:13:15 12.1 C 2.14 g/m*3 12.1 C 0 km/h
97 23-03-2003 19:25:15 11.9 C 2.12 g/m*3 11.9 C 0 km/h
98 23-03-2003 19:37:14 11.4 C 2.05 g/m*3 11.4 C 0 km/h
99 23-03-2003 19:49:14 11.6 C 2.08 g/m*3 11.6 C 0 km/h
100 23-03-2003 20:01:14 10.9 C 1.99 g/m*3 10.9 C 0 km/h
Sensor: Nr:Datum:Temp:Abs-Feuchte:Windchill:Wind:
Aussen-T/F 101 23-03-2003 20:13:15 10.5 C 1.94 g/m*3 10.5 C 0 km/h
102 23-03-2003 20:25:15 9.9 C 2.43 g/m*3 9.9 C 0 km/h
103 23-03-2003 20:37:59 9.4 C 2.71 g/m*3 9.4 C 0 km/h
104 23-03-2003 20:49:59 9 C 2.64 g/m*3 9 C 0 km/h
105 23-03-2003 21:01:13 8.8 C 2.79 g/m*3 8.8 C 0 km/h
106 23-03-2003 21:13:14 8.2 C 2.93 g/m*3 8.2 C 0 km/h
107 23-03-2003 21:25:14 8 C 2.98 g/m*3 8 C 0 km/h
108 23-03-2003 21:38:14 7.5 C 2.88 g/m*3 7.5 C 0 km/h
109 23-03-2003 21:50:14 7.1 C 2.96 g/m*3 7.1 C 0 km/h
110 23-03-2003 22:02:14 6.5 C 3 g/m*3 6.5 C 0 km/h
111 23-03-2003 22:14:14 6.3 C 3.11 g/m*3 6.3 C 0 km/h
112 23-03-2003 22:26:14 6.1 C 3 g/m*3 6.1 C 0 km/h
113 23-03-2003 22:38:14 5.9 C 3.03 g/m*3 5.9 C 0 km/h
114 23-03-2003 22:50:14 5.8 C 3.01 g/m*3 5.8 C 0 km/h
115 23-03-2003 23:02:14 5.6 C 3.04 g/m*3 5.6 C 0 km/h
116 23-03-2003 23:14:14 5.4 C 3.07 g/m*3 5.4 C 0 km/h
117 23-03-2003 23:26:14 5 C 3.06 g/m*3 5 C 0 km/h
118 23-03-2003 23:38:14 4.8 C 3.02 g/m*3 4.8 C 0 km/h
119 23-03-2003 23:50:14 4.6 C 3.04 g/m*3 4.6 C 0 km/h

Legende:
   Min
   Max


Maximal/Minimal-Werte vom 23.02.2003 - 30.09.2000

Sensor Min Max Avg
Temp
(Aussen-T/F)
°C
-- 
°C 0 °C

Die Daten stammen von einer Davis Vantage Pro 2 Wetter-Station und werden unter Linux mit der Software wview2wettercgi und aufbereitet. Alle Angaben erfolgen ohne Gewähr für ihre Vollständigkeit oder Richtigkeit.
Kontakt: Rainer Krienke krienke@uni-koblenz.de . Meine Webseiten an der Uni Koblenz oder privat.
Version: $Revision: 0.78 $